Location: Argonnex
(45.9500°N, 6.1333°E)
Time: 09:49:01
(UTC+00:00)

Cosmos 2266 Rocket - Pass Details

Date: 01 October 2023
Orbit: 933 x 1008 km, 82.9° (Epoch: 10 December)

Event Time Altitude Azimuth Distance (km) Brightness Sun altitude
Exits shadow 02:41:14 86° 200° (SSW) 1,006 3.9 -29.6°
Maximum altitude 02:41:23 89° 278° (W) 1,005 3.9 -29.6°
Drops below altitude 10° 02:47:50 10° 8° (N) 2,792 6.8 -28.6°
Sets 02:50:23 0° 9° (N) 3,749 7.5 -28.2°
